www.pogodaiklimat.ru

Погода и климат >> Архив погоды >> Россия >> Якутия >> Оймякон


АРХИВ ПОГОДЫ в Оймяконе

Время (UTC), дата Ветер
(напр.,м/с)
 
Видим.   Явления Облачность Т
(С)
Тd
(С)
f
(%)
Тe
(С)
Тes
(С)
Комфортность P
(гПа)
Po
(гПа)
Тmin
(С)
Tmax
(С)
R
(мм)
R24
(мм)
S
(см)
03 9.07 С 1 50 км дым 8/1 1000 м
[Cu hum Ci fib]
+29.1 +14.2 40 +31 +42 жарко 1011.5 931.2
06 9.07 СВ 1 50 км дым 8/1 1000 м
[Cu hum Ci fib]
+32.2 +11.1 27 +32 +39 жарко 1009.0 929.6
09 9.07 Ю 1 50 км дым 8/0
[Ci fib]
+30.2 +18.3 49 +35 +37 очень
душно
1007.8 928.3 +32.7
12 9.07 ЮЗ 2 50 км дым 8/1 1000 м
[Sc Ci fib]
+17.9 +13.1 73 +18 +18 тепло 1010.9 927.6
15 9.07 штиль 0 50 км дым 4/1 1000 м
[Sc Ci fib]
+10.6 +9.8 95 +10 +10 по сезону 1013.2 927.6
18 9.07 штиль 0 50 км дым 5/3 1000 м
[Sc Ci fib]
+8.8 +7.3 90 +8 +8 по сезону 1013.8 927.6
21 9.07 штиль 0 50 км дым 5/4 1000 м
[Sc Ci fib]
+15.3 +9.8 70 +15 +18 тепло 1011.8 927.6 +7.7
00 10.07 штиль 0 50 км дым 8/5 1000 м
[Sc Ci fib]
+20.0 +13.5 66 +22 +28 комфорт 1009.2 926.7
03 10.07 Ю 2 20 км дым 6/4 1000 м
[Sc Ci fib]
+27.2 +14.2 45 +29 +36 жарко 1005.3 925.0
06 10.07 Ю 2 20 км дым 9/6 1000 м
[Cb calv Ci fib]
+29.2 +14.8 42 +32 +34 душно 1002.2 922.7
09 10.07 СЗ 2 20 км дым 9/6 1000 м
[Cb calv Ci fib]
+25.1 +13.5 49 +27 +28 жарко 1002.4 921.8 +29.5
12 10.07 З 3 50 км дым 9/1 1500 м
[Sc diur, vesp Ci sp]
+23.0 +9.8 43 +25 +25 комфорт 1003.7 922.4
15 10.07 СВ 1 20 км дым 9/1 1500 м
[Sc diur, vesp Ac trans Ci fib]
+11.9 +8.6 80 +12 +12 по сезону 1006.6 921.9
18 10.07 штиль 0 50 км дым 5/1 1500 м
[Sc Ac trans Ci fib]
+9.5 +8.2 92 +9 +9 по сезону 1007.0 921.7
21 10.07 СВ 2 50 км дым 8/6 1500 м
[Sc Ac trans]
+14.6 +11.2 80 +14 +15 тепло 1005.1 921.4 +9.1
00 11.07 ЮЗ 1 50 км слабый ливневой дождь 10/9 1000 м
[Cb cap Ac und]
+19.0 +13.7 71 +21 +22 комфорт 1003.1 920.9
03 11.07 Ю 1 20 км дым {ливн. осадки} 9/9 1000 м
[Cb cap Ac trans]
+20.6 +15.8 74 +25 +26 комфорт 1001.7 920.1
06 11.07 Ю 1 20 км дым {ливн. осадки} 9/8 1000 м
[Cb cap Ac trans]
+22.0 +16.0 69 +26 +27 душно 999.8 918.6
09 11.07 ЮВ 1 20 км дым 9/8 1000 м
[Cb cap Ac trans Ci fib]
+23.2 +16.4 66 +28 +28 душно 998.8 918.1 +24.1 0.0
12 11.07 ЮЗ 1 20 км дым 9/6 1000 м
[Cb cap Ac trans Ci fib]
+19.1 +12.3 65 +21 +21 комфорт 1000.6 918.6
15 11.07 штиль 0 20 км дым 10/6 1000 м
[Cb cap Ac trans Ci fib]
+16.4 +9.5 64 +16 +16 тепло 1001.9 919.0
18 11.07 З 2 50 км дым 8/5 1000 м
[Sc Ci fib]
+12.6 +11.3 92 +12 +12 тепло 1003.1 919.0
21 11.07 штиль 0 50 км дым 8/5 1000 м
[Sc Ci fib]
+16.0 +12.2 78 +16 +18 тепло 1003.2 920.0 +12.1
00 12.07 Ю 1 20 км 5/1 1500 м
[Sc Ac cast Ci fib]
+22.2 +12.7 55 +25 +33 комфорт 1000.5 919.3
03 12.07 ЮВ 2 50 км дым 8/5 1000 м
[Cb cap Ac trans Ci ing]
+26.1 +13.5 46 +28 +32 жарко 997.5 917.5
06 12.07 З 3 20 км гроза, ливневой дождь 10/8 1000 м
[Cb cap Ci sp]
+17.5 +12.1 71 +18 +19 прохладно 1000.7 918.2
09 12.07 штиль 0 20 км дым {гроза, ливн. осадки} 10/8 1000 м
[Cb cap Ac trans Ci fib]
+18.9 +12.3 66 +20 +20 тепло 1000.4 918.3 +26.1 0.1
12 12.07 Ю 3 50 км дым {гроза, ливн. осадки} 8/3 1500 м
[Sc diur, vesp Ci fib]
+15.4 +10.7 74 +15 +15 по сезону 1001.0 917.9
15 12.07 СВ 2 50 км дым 8/4 1500 м
[Sc Ac trans Ci fib]
+9.3 +8.6 95 +7 +7 прохладно 1002.6 917.5
18 12.07 З 1 50 км местами туман поземный 9/1 1500 м
[Sc Ci]
+6.7 +6.5 99 +5 +6 по сезону 1003.8 917.9
21 12.07 СЗ 1 50 км дым 10/10 1000 м
[Cb cap]
+10.8 +10.1 95 +10 +10 по сезону 1002.7 918.3 +5.8 0.0
00 13.07 СВ 2 50 км дым 10/8 1000 м
[Cb cap As op]
+13.8 +11.5 86 +13 +14 прохладно 1001.8 918.2
03 13.07 Ю 1 50 км дым 10/8 1000 м
[Cb cap Ac As]
+17.6 +12.6 72 +19 +20 по сезону 1000.7 918.3
06 13.07 ЮЗ 2 50 км дым 9/6 1000 м
[Cb cap Ac trans Cc]
+20.7 +13.2 62 +24 +26 комфорт 999.6 918.1
09 13.07 Ю 1 50 км дым 10/6 1000 м
[Cb cap Ac trans Cs]
+19.9 +14.0 69 +23 +23 комфорт 999.8 918.1 +21.0
12 13.07 Ю 1 50 км дым {ливн. осадки} 10/8 1500 м
[Sc diur, vesp Ac trans Ci fib]
+16.2 +14.3 89 +17 +17 тепло 1002.0 918.8
15 13.07 штиль 0 20 км дым 10/10 1440 м
[Sc]
+13.6 +13.2 97 +13 +13 тепло 1002.9 919.2
18 13.07 СЗ 1 20 км дым 10/8 1000 м
[Sc Ac trans Ci fib]
+12.7 +12.1 96 +13 +13 тепло 1003.0 919.0
21 13.07 штиль 0 20 км дым 10/3 1500 м
[Sc Ac lent Ci fib]
+15.6 +14.2 91 +15 +17 тепло 1003.0 919.8 +12.2 0.0
00 14.07 З 2 50 км дым 8/3 1000 м
[Cu med, cong Ac lent Ci fib]
+20.6 +14.2 67 +24 +28 комфорт 1002.1 920.4
03 14.07 Ю 1 50 км слабый ливневой дождь 10/6 1000 м
[Cb cap Ac trans Ci fib]
+22.5 +14.8 62 +26 +29 жарко 1001.4 920.3
06 14.07 СВ 1 50 км слабый ливневой дождь 9/8 1000 м
[Cb cap Ac trans]
+22.2 +15.0 64 +26 +27 душно 1001.1 920.0
09 14.07 З 1 20 км гроза, ливневой дождь 10/10 1000 м
[Cb cap]
+18.8 +15.9 83 +21 +21 комфорт 1002.1 920.0 +23.4 1
12 14.07 Ю 1 50 км дым {гроза, ливн. осадки} 10/6 1000 м
[Cb cap Cs]
+15.2 +14.5 96 +16 +16 тепло 1004.5 921.3
15 14.07 штиль 0 1000 м туман 8/5 1000 м
[Sc Ci fib]
+11.9 +11.8 99 +11 +11 по сезону 1006.3 921.8
18 14.07 штиль 0 50 м туман ?/? +11.3 +11.3 100 +11 +11 тепло 1006.9 922.2
21 14.07 С 2 20 км туман поземный 8/4 1000 м
[Sc Cc]
+12.6 +12.4 99 +12 +13 по сезону 1007.5 923.2 +10.9 2
00 15.07 С 2 50 км {туман} 8/5 1000 м
[Cu Sc Cc]
+18.7 +12.4 67 +20 +24 тепло 1006.5 923.9
03 15.07 С 3 50 км 9/5 1000 м
[Cu Sc Ac trans Ci fib]
+21.2 +12.0 56 +23 +26 комфорт 1005.5 923.6
06 15.07 СВ 2 50 км слабый ливневой дождь 9/8 1000 м
[Cb cap Ac trans Ci fib]
+22.3 +11.7 51 +25 +26 комфорт 1004.4 922.9
09 15.07 ЮВ 2 50 км слабый ливневой дождь 9/9 1000 м
[Cb cap]
+20.5 +14.3 68 +24 +24 комфорт 1005.3 923.3 +24.1 0.3
12 15.07 ЮЗ 3 50 км {ливн. осадки} 9/9 1000 м
[Cb cap]
+17.3 +11.9 71 +17 +17 тепло 1006.9 923.8
15 15.07 ЮЗ 3 50 км 8/8 1000 м
[Cb cap]
+16.2 +10.4 68 +16 +16 тепло 1007.7 924.3
18 15.07 СВ 2 50 км 8/8 1000 м
[Cb cap]
+12.4 +9.9 85 +11 +11 тепло 1009.0 924.4
21 15.07 СВ 2 50 км 8/8 1000 м
[Cb cap Ac trans]
+15.0 +11.9 82 +15 +15 тепло 1008.2 924.4 +12.0 0.0
00 16.07 Ю 3 50 км 9/3 1000 м
[Cu Sc Ac trans Cc]
+19.8 +12.3 62 +22 +25 комфорт 1006.5 924.1

 

Местоположение метеостанции Оймякон (Якутия, Россия): широта 63.25 долгота 143.10 высота над уровнем моря 740 м.

В архиве по умолчанию представлена погода в Оймяконе за последнюю неделю. Архивные данные за месяц целиком и за предыдущие месяцы, начиная с января 2011 года, Вы можете получить, выбрав интересующий диапазон дат из раскрывающегося списка и нажав кнопку "Ввод!".


*Определитесь, кто Вы:
робот инопланетянин человек

Внимание! Время в таблицах - всемирное. Для получения местного времени необходимо прибавить поправку, которая в Оймяконе равна 10 ч.

Смотрите также архив погоды в соседних городах и на ближайших метеорологических станциях:

Погода в Агаякане (Якутия, Россия) (71 км)
Погода в Юртах (Якутия, Россия) (110 км)
Погода в Делянкире (Якутия, Россия) (140 км)
Погода в Усть-Нере (Якутия, Россия) (142 км)
Погода в Восточной (Якутия, Россия) (175 км)
Погода в Сусумане (Магаданская область, Россия) (258 км)
Погода в Колымской (Магаданская область, Россия) (278 км)
Погода в Уеге (Хабаровский край, Россия) (282 км)
Погода в Теплом Ключе (Якутия, Россия) (322 км)
Погода в Ягодной (Магаданская область, Россия) (340 км)

Пояснения к столбцам:

Ветер - указаны скорость ветра в м/с - средняя за 10 мин, порывы в срок и между сроками (в фигурных скобках) и направление, откуда дует ветер: С - северный, СВ - северо-восточный, В - восточный, ЮВ - юго-восточный, Ю - южный, ЮЗ - юго-западный, З - западный, СЗ - северо-западный.
Видимость - горизонтальная дальность видимости в метрах или километрах. При видимости от 1 до 10 км при отсутствии осадков обычно наблюдается дымка, при ухудшении видимости до 1 км и менее - туман. В сухую погоду видимость может ухудшаться дымом, пылью или мглою.
Явления - указаны атмосферные явления, наблюдавшиеся в срок или в последний час перед сроком; фигурными скобками обозначены явления, наблюдавшиеся между сроками (за 1-3 часа до срока); квадратными скобками обозначены град или гололедные отложения с указанием их диаметра в мм.
Облачность - указаны через наклонную черту общая и нижняя облачность в баллах и высота нижней границы облаков в метрах; квадратными скобками обозначены формы облаков: Ci - перистые, Cs - перисто-слоистые, Cc - перисто-кучевые, Ac - высококучевые, As - высокослоистые, Sc - слоисто-кучевые, Ns - слоисто-дождевые, Cu - кучевые, Cb - кучево-дождевые. Подробнее классификацию облаков см. в Атласе облаков (PDF).
T - Температура воздуха - температура, измеренная на высоте 2 м над землей.
Td - Температура точки росы - температура, при понижении до которой содержащийся в воздухе водяной пар достигнет насыщения.
f - Относительная влажность воздуха - влажноcть воздуха, измеренная на высоте 2 м над землей.
Te - Эффективная температура - температура, которую ощущает одетый по сезону человек в тени. Характеристика душности погоды. При расчете учитывается влияние влажности воздуха и скорости ветра на теплоощущения человека.
Tes - Эффективная температура на солнце - температура, которую ощущает человек, с поправкой на солнечный нагрев. Характеристика знойности погоды. Зависит от высоты солнца над горизонтом, облачности и скорости ветра. Ночью, в пасмурную погоду, а также при ветре 12 м/с и более поправка равна нулю.
P - Атмосферное давление - приведенное к уровню моря атмосферное давление.
Po - Атмосферное давление - измеренное на уровне метеостанции атмосферное давление.
Tmin - Минимальная температура - минимум температуры воздуха на высоте 2 м над землей.
Tmax - Максимальная температура - максимум температуры воздуха на высоте 2 м над землей.
R - Количество осадков - Количество выпавших осадков за период времени, мм. При наведении курсора мыши на число - период времени, за который выпало указанное количество осадков.
R24 - Количество осадков - Количество выпавших осадков за 24 часа, мм.
S - Снежный покров - Высота снежного покрова, см. При наведении курсора мыши на число - состояние снежного покрова и степень покрытия местности в баллах.